Location: Unspecified
(0.0000°N, 0.0000°E)
Time: 18:36:02
(UTC+00:00)

A-11 Canister half - Visible Passes

Search period start: 18 April 2019 00:00
Search period end: 28 April 2019 00:00
Orbit: 1524 x 1685 km, 47.3° (Epoch: 17 April)

Date Brightness Start Highest point End Pass type
(mag) Time Alt. Az. Time Alt. Az. Time Alt. Az.
18 Apr 11.4 04:52:41 10° N 04:58:28 17° NE 05:04:06 10° E visible
18 Apr 9.9 19:45:35 10° WSW 19:54:43 47° NW 20:04:09 10° NNE visible
19 Apr 11.4 04:31:29 10° NNE 04:36:45 15° NE 04:41:56 10° ENE visible
19 Apr 9.8 19:23:51 10° WSW 19:33:04 50° NW 19:42:36 10° NNE visible
20 Apr 11.4 04:10:22 10° NNE 04:15:02 14° NE 04:19:38 10° ENE visible
20 Apr 9.8 19:02:09 10° SW 19:11:26 54° NW 19:21:02 10° NNE visible
21 Apr 11.5 03:49:20 10° NNE 03:53:19 13° NE 03:57:15 10° ENE visible
21 Apr 9.7 18:40:27 10° SW 18:49:47 58° NW 18:59:28 10° NNE visible
22 Apr 11.5 03:28:31 10° NNE 03:31:35 12° NE 03:34:38 10° ENE visible
22 Apr 9.6 05:27:27 10° NNW 05:37:19 67° NE 05:46:49 10° SE visible
22 Apr 9.7 18:18:46 10° SW 18:28:09 62° NW 18:37:53 10° NNE visible
22 Apr 11.6 20:32:53 10° NW 20:33:58 10° NW 20:35:03 10° NW visible
23 Apr 11.5 03:08:11 10° NNE 03:09:51 10° NE 03:11:30 10° NE visible
23 Apr 9.6 05:05:52 10° NNW 05:15:40 62° NE 05:25:09 10° SE visible
23 Apr 11.5 20:09:28 10° WNW 20:12:14 11° NW 20:15:01 10° NNW visible
24 Apr 9.7 04:44:16 10° NNW 04:54:02 58° NE 05:03:28 10° SE visible
24 Apr 11.5 19:46:48 10° WNW 19:50:30 13° NW 19:54:16 10° NNW visible
25 Apr 9.8 04:22:41 10° NNW 04:32:23 54° NE 04:41:46 10° SE visible
25 Apr 11.5 19:24:21 10° WNW 19:28:47 14° NW 19:33:17 10° NNW visible
26 Apr 9.8 04:01:08 10° NNW 04:10:45 51° NE 04:20:03 10° ESE visible
26 Apr 11.4 19:02:04 10° WNW 19:07:04 15° NW 19:12:11 10° NNW visible
27 Apr 9.9 03:39:34 10° NNW 03:49:06 47° NE 03:58:19 10° ESE visible
27 Apr 11.4 18:39:52 10° W 18:45:22 16° NW 18:50:59 10° N visible
